AAUSAT3

operational
NORAD ID: 39087 Int'l Des: 2013-009 Owner: AAU Country: DK
LEOCIRCULARRETROGRADESSO

关于 AAUSAT3

正在加载描述...

实时位置

正在加载3D地球...

即将过境

高度历史

Altitude vs Time

uPlot chart will show altitude changes over time

两行轨道根数

1 39087U 13009B 26062.48479605 .00001049 00000-0 34778-3 0 9995
2 39087 98.3684 248.6901 0011779 164.9402 195.2139 14.39784691681960
Epoch: Mar 3, 2026 • Age: 35 hours

当前状态

高度 769.4 km
速度 7.47 km/s
星下点 5.02°N, 78.45°W
发射日期 Feb 25, 2013
运行时间 13 years
类型 other

技术详情

分类 Payload
质量 3.00 kg
干质量 3.00 kg
总质量 3.00 kg
长度 0.10 m
直径 0.10 m
跨度 0.10 m
形状 Box
制造商 AAU
平台类型 Cubesat 1U
阶段状态 In Orbit
所有者/国家 AAU/DK

大型星座

Loading constellations...